カタログに戻る

FENGYUN 1C DEB

運用中SSO
NORAD 35229·DEBRIS·🇨🇳 China

打ち上げ May 10, 1999 から Taiyuan Satellite Launch Center

Loading…

次のパス (今後24時間)

TLE

最新Source: Space-Track

元期: Sep 13, 2026, 11:47 UTC

1 35229U 99025DQM 26256.49102933  .00018623  00000-0  28108-2 0  9999
2 35229  98.4492 349.2704 0035684  75.4784 285.0377 14.73931223685375

AllMySatでFENGYUN 1C DEBをリアルタイム追跡

Download on the App Store